Погода в Ксанти

Греция     41°08′21″N   24°53′16″E
темп.,
°C
ветер,
м/с
пор.,
м/с
влажн.,
%
обл.,
%
осадки,
мм/ч
давл.,
гПа
погр.,
м
2 марта, вт
вт223:00+2ссв5118162 0.1 1032754
02:00+1с5117731 0.1 1034625
05:000с410830 0.0 1033525
08:00+1ссв38800 0.0 1034529
11:00+6св56590 0.0 10331152
14:00+8св464910 0.0 10321408
17:00+7всв45574 0.0 1031879
20:00+3ссв11792 0.0 103222
3 марта, ср
ср323:00+2с12760 0.0 103223
02:00+2с12690 0.0 103222
05:00+2с22590 0.0 103122
08:00+4с23510 0.0 103239
11:00+11всв24360 0.0 1031845
14:00+12юв33390 0.0 10301049
17:00+10ююв22520 0.0 1029514
20:00+6ссв11680 0.0 103022
4 марта, чт
чт423:00+5ссз11720 0.0 102922
02:00+4зюз11760 0.0 102922
05:00+3з11770 0.0 102722
08:00+4з11730 0.0 102627
11:00+9ююз33610 0.0 1024522
14:00+11ююз33610 0.0 1021692
17:00+9ю33760 0.0 1019363
20:00+5юз11940 0.0 102025
5 марта, пт
пт523:00+5зюз11890 0.0 101922
02:00+4зюз11870 0.0 101822
05:00+4зюз118721 0.0 101722
08:00+5зюз118012 0.0 101744
11:00+10ююз346425 0.0 1016562
14:00+13ююз566031 0.0 1015865
17:00+11ю457574 0.0 1014555
20:00+7юз119387 0.0 101526
6 марта, сб
сб623:00+8ююз1188100 0.0 101625
02:00+8зсз1184100 0.0 101622
05:00+7зсз1181100 0.0 101622
08:00+8ссз1176100 0.0 101722
11:00+13юв115784 0.0 1018716
14:00+13юв225586 0.5 10181121
17:00+9св5772100 1.2 1019740
20:00+6св5788100 1.8 1023466